Location: ????????
(55.0559°N, 39.1270°E)
Time: 18:09:44
(UTC+00:00)

Cosmos 1000 Rocket - Pass Details

Date: 15 November 2025
Orbit: 952 x 992 km, 82.9° (Epoch: 14 December)

Event Time Altitude Azimuth Distance (km) Brightness Sun altitude
Exits shadow 01:28:41 84° 228° (SW) 1,006 4.4 -29.2°
Maximum altitude 01:28:53 86° 279° (W) 1,003 4.4 -29.2°
Drops below altitude 10° 01:35:16 10° 11° (N) 2,764 7.1 -28.3°
Sets 01:37:48 0° 12° (NNE) 3,713 7.8 -27.9°
